Location: Reggio Emilia
(44.6990°N, 10.6297°E)
Time: 08:35:54
(UTC+01:00)

ISS - Visible Passes

Search period start: 07 December 2021 00:00
Search period end: 17 December 2021 00:00
Orbit: 417 x 422 km, 51.6° (Epoch: 07 December)

Date Brightness Start Highest point End Pass type
(mag) Time Alt. Az. Time Alt. Az. Time Alt. Az.
07 Dec -3.8 17:15:01 10° WNW 17:18:24 80° NNE 17:21:48 10° ESE visible
07 Dec -0.8 18:52:41 10° W 18:54:50 16° SW 18:56:59 10° S visible
08 Dec -1.4 18:04:46 10° W 18:07:37 25° SW 18:10:28 10° SSE visible
09 Dec -2.2 17:17:08 10° WNW 17:20:20 40° SW 17:23:32 10° SSE visible
11 Dec -0.5 17:19:53 10° W 17:22:01 16° SW 17:24:08 10° S visible
